Miscellaneous Local Product
Issued by NWS Hastings, NE

Home | Current Version | Previous Version | Graphics & Text | Print | Product List | Glossary On
Versions: 1 2 3 4 5 6 7 8 9 10 11 12 13 14 15 16 17 18 19 20 21 22 23 24 25 26 27 28 29 30 31 32 33 34 35 36 37 38 39 40 41 42 43 44 45 46 47 48 49 50
357
AXUS43 KGID 272102
MISGRI

GID CWA HOURLY WEATHER ROUNDUP
NATIONAL WEATHER SERVICE HASTINGS NE
400 PM CDT MON MAR 27 2017

NOTE: "FAIR" INDICATES FEW OR NO CLOUDS BELOW 12,000 FEET WITH NO
SIGNIFICANT WEATHER AND/OR OBSTRUCTIONS TO VISIBILITY.

...SOUTH CENTRAL NEBRASKA...

CITY           SKY/WX    TMP DP  RH WIND       PRES   REMARKS
GRAND ISLAND   MOSUNNY   54  42  64 NW3       29.95F
HASTINGS       CLOUDY    50  42  74 CALM      29.95F
KEARNEY        CLOUDY    54  41  62 CALM      29.95F
ORD            SUNNY     55  41  59 W5        29.91F
YORK           CLOUDY    50  41  71 NE3       29.96S
AURORA         CLOUDY    53  43  69 W3        29.95F
LEXINGTON      MOSUNNY   56  44  62 SE8       29.91F
HOLDREGE       SUNNY     58  42  55 E6        29.91F
HEBRON         CLOUDY    49  43  80 CALM      29.96F

...NEBRASKA PANHANDLE...

CITY           SKY/WX    TMP DP  RH WIND       PRES   REMARKS
CHADRON        SUNNY     65  27  23 CALM      29.79F
ALLIANCE       CLOUDY    63  28  26 W14       29.81F
SCOTTSBLUFF    MOSUNNY   64  23  21 W5        29.80F
SIDNEY         MOSUNNY   63  31  30 SW9       29.84F

...WESTERN AND NORTH CENTRAL NEBRASKA...

CITY           SKY/WX    TMP DP  RH WIND       PRES   REMARKS
VALENTINE      SUNNY     60  37  42 S7        29.87F
AINSWORTH      SUNNY     59  43  53 S7        29.88F
ONEILL         SUNNY     59  38  46 SE7       29.91F
BROKEN BOW     SUNNY     56  43  61 MISG      29.91S
IMPERIAL       SUNNY     64  37  36 VRB7      29.86F
NORTH PLATTE   SUNNY     64  37  36 SE5       29.86F
MCCOOK         MOSUNNY   65  42  43 SE8       29.87F

...EASTERN NEBRASKA...

CITY           SKY/WX    TMP DP  RH WIND       PRES   REMARKS
NORFOLK        SUNNY     58  37  45 NE7       29.92F
SO SIOUX CITY  MOSUNNY   56  40  55 VRB7      29.94F
TEKAMAH        PTSUNNY   53  41  63 VRB3      29.95F
COLUMBUS       MOSUNNY   55  43  62 CALM      29.94F
ALBION         SUNNY     57  37  47 S3        29.93F
OMAHA EPPLEY   CLOUDY    51  40  65 NE6       29.95F
OFFUTT AFB     CLOUDY    50  40  68 N5        29.95F
MILLARD        CLOUDY    52  42  70 NE5       29.96S
LINCOLN        CLOUDY    54  40  59 N6        29.97S
NEBRASKA CITY  CLOUDY    50  40  69 NE10      29.95S
BEATRICE       CLOUDY    53  44  71 N5        29.96S
FALLS CITY     CLOUDY    54  44  69 NE8       29.94S

...NORTHERN KANSAS...

CITY           SKY/WX    TMP DP  RH WIND       PRES   REMARKS
GOODLAND       SUNNY     65  37  35 S13       29.86F
HILL CITY      SUNNY     62  45  53 SE9       29.91F
NORTON         CLEAR     57  43  58 E8        29.90F
PHILLIPSBURG   SUNNY     63  43  48 N5        29.91F
RUSSELL        MOSUNNY   62  41  46 N3        29.89F
CONCORDIA      CLOUDY    53  46  77 VRB3      29.95F
SALINA         CLOUDY    56  46  69 N7        29.95F
TOPEKA         CLOUDY    55  48  77 NE7       29.94R



USA.gov is the U.S. government's official web portal to all federal, state and local government web resources and services.